This demonstration page uses our WeatherBlox Daily Observations layout. Learn more.

Left ArrowRight Arrow

30.21309, -93.2044

Hourly Observations for February 23, 2022

Temp ( °F °C ) Dew Point ( °F °C ) Humidity (%) Winds ( mph kmh ) Pressure ( in mb ) Visibility ( mi km ) Precip ( " mm )
12:15 am 00:15 Cloudy 69 20.3 67 19.2 93 93 S 3 6 30.11 1020 7 11 0.00 0.00
12:35 am 00:35 Mostly Cloudy with Mist and Fog 67 19.6 65 18.6 94 94 S 5 7 30.12 1020 7 11 0.00 0.00
12:55 am 00:55 Mostly Cloudy with Mist and Fog 67 19.3 65 18.5 95 95 SSE 6 9 30.12 1020 5 8 0.00 0.00
1:15 am 01:15 Mostly Cloudy with Mist and Fog 67 19.6 66 18.8 95 95 S 7 11 30.12 1020 5 8 0.00 0.00
1:35 am 01:35 Partly Cloudy 68 19.9 66 19.1 95 95 S 7 11 30.11 1020 7 11 0.00 0.00
1:55 am 01:55 Mostly Cloudy with Mist and Fog 68 19.9 66 19 95 95 S 6 9 30.11 1020 7 11 0.00 0.00
2:15 am 02:15 Cloudy with Mist and Fog 65 18.6 64 17.8 95 95 SSE 5 7 30.11 1020 1 1 0.00 0.00
2:35 am 02:35 Cloudy with Fog 67 19.6 66 18.9 96 96 S 6 9 30.10 1019 1 1 0.00 0.00
2:55 am 02:55 Cloudy with Fog 67 19.6 66 19 96 96 S 6 9 30.10 1019 1 1 0.00 0.00
3:15 am 03:15 Cloudy with Fog 67 19.3 65 18.6 96 96 SSE 3 6 30.10 1019 0 0 0.00 0.00
3:35 am 03:35 Cloudy with Fog 67 19.3 65 18.6 96 96 SSE 3 6 30.10 1019 0 0 0.00 0.00
3:55 am 03:55 Cloudy with Fog 67 19.3 65 18.6 96 96 S 3 6 30.10 1019 0 0 0.00 0.00
4:15 am 04:15 Cloudy with Fog 67 19.3 66 18.7 96 96 SSE 5 7 30.10 1019 0 0 0.00 0.00
4:35 am 04:35 Cloudy with Fog 67 19.3 66 18.7 96 96 SSE 6 9 30.10 1019 1 1 0.00 0.00
4:55 am 04:55 Cloudy with Fog 67 19.3 66 18.7 96 96 SSE 6 9 30.10 1019 1 1 0.00 0.00
5:15 am 05:15 Cloudy with Fog 67 19.4 66 18.8 96 96 S 5 7 30.11 1020 0 0 0.00 0.00
5:35 am 05:35 Cloudy with Fog 67 19.2 65 18.6 96 96 Calm 30.11 1020 0 0 0.00 0.00
6:00 am 06:00 Cloudy with Fog 66 19 66 19 100 100 Calm 30.12 1020 0 0 0.00 0.00
6:53 am 06:53 Mostly Cloudy with Fog 68 20 66 19 94 94 Calm 30.13 1020 0 0 0.00 0.00
7:47 am 07:47 Mostly Cloudy with Fog 68 20 66 19 94 94 Calm 30.14 1021 0 0 0.00 0.00
8:48 am 08:48 Mostly Cloudy with Fog 66 19 64 18 94 94 Calm 30.16 1021 0 0 0.00 0.00
9:50 am 09:50 Mostly Cloudy with Fog 64 18 64 18 100 100 Calm 30.17 1022 0 0 0.00 0.00
10:55 am 10:55 Cloudy with Mist and Fog 64 18 64 18 100 100 Calm 30.16 1021 2 3 0.00 0.00
11:50 am 11:50 Cloudy with Light Rain 64 18 64 18 100 100 NNE 8 13 30.15 1021 2 3 0.00 0.00
12:50 pm 12:50 Cloudy with Light Rain 64 18 63 17 94 94 NNE 9 15 30.14 1021 4 6 0.00 0.00
1:55 pm 13:55 Cloudy with Mist and Fog 63 17 61 16 94 94 NE 12 19 30.11 1020 4 6 0.00 0.00
2:50 pm 14:50 Cloudy with Mist and Fog 61 16 61 16 100 100 NNW 12 19 30.11 1020 5 8 0.00 0.00
3:45 pm 15:45 Cloudy with Mist and Fog 61 16 57 14 88 88 NNE 8 13 30.11 1020 7 11 0.00 0.00
4:45 pm 16:45 Cloudy with Mist and Fog 57 14 55 13 94 94 NNE 8 13 30.11 1020 7 11 0.00 0.00
5:45 pm 17:45 Cloudy with Mist and Fog 55 13 52 11 88 88 N 10 17 30.13 1020 4 6 0.00 0.00
6:45 pm 18:45 Cloudy with Mist and Fog 54 12 52 11 94 94 NNE 10 17 30.13 1020 4 6 0.00 0.00
7:45 pm 19:45 Cloudy with Mist and Fog 52 11 50 10 94 94 NNE 9 15 30.14 1021 4 6 0.00 0.00
8:45 pm 20:45 Cloudy with Mist and Fog 50 10 48 9 94 94 NNE 8 13 30.16 1021 2 3 0.00 0.00
9:45 pm 21:45 Cloudy with Mist and Fog 48 9 48 9 100 100 NNE 8 13 30.16 1021 2 3 0.00 0.00
10:15 pm 22:15 Cloudy with Mist and Fog 49 9.5 48 8.7 95 95 N 8 13 30.17 1022 2 3 0.00 0.00
10:35 pm 22:35 Cloudy with Mist and Fog 49 9.3 47 8.5 95 95 N 9 15 30.16 1021 2 3 0.00 0.00
10:55 pm 22:55 Cloudy with Mist and Fog 48 9.1 47 8.4 95 95 NNE 8 13 30.15 1021 2 3 0.00 0.00
11:15 pm 23:15 Cloudy with Mist and Fog 48 9.1 47 8.4 95 95 N 5 7 30.15 1021 2 3 0.00 0.00
11:35 pm 23:35 Cloudy with Mist and Fog 48 9.1 47 8.4 95 95 NNE 6 9 30.15 1021 2 3 0.00 0.00
11:55 pm 23:55 Cloudy with Mist and Fog 48 8.9 47 8.3 96 96 N 7 11 30.15 1021 2 3 0.00 0.00

Powered by AerisWeather